www.pogodaiklimat.ru
ПОГОДА в Вамене
Время
(UTC), дата
00 18.10
03 18.10
06 18.10
09 18.10
12 18.10
15 18.10
18 18.10
00 19.10
03 19.10
06 19.10
09 19.10
12 19.10
15 19.10
18 19.10
00 20.10
03 20.10
06 20.10
09 20.10
12 20.10
15 20.10
18 20.10
00 21.10
03 21.10
06 21.10
09 21.10
12 21.10
15 21.10
18 21.10
00 22.10
03 22.10
06 22.10
09 22.10
12 22.10
15 22.10
18 22.10
00 23.10
03 23.10
06 23.10
09 23.10
12 23.10
15 23.10
18 23.10
00 24.10
03 24.10
06 24.10
09 24.10
12 24.10
15 24.10
18 24.10
Ветер
(напр.,м/с)
Видим. Явления Облачность Т
(С)
Тd
(С)
f
(%)
Тe
(С)
Тes
(С)
Комфортность P
(гПа)
Po
(гПа)
Тmin
(С)
Tmax
(С)
R
(мм)
R24
(мм)
S
(см)
З 1 10 км 8/5 420 м
[Cu Sc Ac trans Ci fib]
+20.7 +17.2 80 +25 +30 комфорт 1020.9 835.7 +16.8 25
СВ 1 10 км 8/5 600 м
[Cu Sc Ac trans Ci fib]
+25.7 +17.0 59 +30 +38 душно 1017.9 833.2
В 4 4000 м слаб. дождь 10/8 330 м
[Cb cap As op Cs]
+20.1 +17.7 86 +23 +24 комфорт 1016.9 832.4 0.0
ЮЗ 1 5000 м осадки на расстоянии 10/6 150 м
[Frnb Ac trans Cs]
+18.4 +17.8 96 +20 +20 1019.3 834.4 5
С 1 1000 м дымка {дождь} 10/8 30 м
[Frnb As op]
+17.7 +17.7 100 +19 +19 1021.8 836.4 +26.5 0.2
С 2 1000 м дымка 10/8 30 м
[Frnb As op]
+17.3 +17.0 98 +18 +18 1021.0 835.8
С 2 1000 м дымка 10/8 30 м
[Frnb As op]
+17.1 +17.1 100 +18 +18 1019.7 834.7 6
С 2 8000 м 10/8 420 м
[Frnb As op Cs]
+19.8 +17.1 84 +23 +24 комфорт 1022.4 836.9 +16.8 9
ЮЗ 4 10 км в посл. час морось 9/6 540 м
[Cu Sc Ac lent Cs]
+23.6 +16.5 64 +27 +31 жарко 1019.9 834.9 0.0
СВ 2 10 км осадки на расстоянии {морось} 9/6 540 м
[Cu Sc Ac lent Cs]
+22.5 +16.2 68 +27 +29 душно 1017.0 832.5 0.0
Ю 4 8000 м осадки на расстоянии 9/6 300 м
[Cu Sc Ac lent Cs]
+19.5 +17.5 88 +22 +22 комфорт 1018.5 833.7
Ю 3 1000 м в посл. час дождь 10/8 30 м
[Frnb As op Cs]
+17.9 +17.3 96 +18 +18 1021.4 836.1 +24.0 1
З 1 1000 м дымка 10/6 30 м
[Frnb Ac trans Cs]
+17.7 +16.9 95 +19 +19 1021.0 835.7
В 1 1000 м дымка 10/6 30 м
[Frnb Ac trans Cs]
+17.2 +16.9 98 +18 +18 1019.7 834.7
СВ 2 10 км 8/5 500 м
[Cu med, cong Ac lent Ci ing]
+21.0 +16.2 74 +25 +30 комфорт 1022.3 836.8 +16.2 1
В 5 10 км морось 8/5 600 м
[Cu Sc Ac lent Ci ing]
+22.9 +18.4 76 +29 +32 очень
душно
1018.7 833.9
ЮЗ 4 10 км осадки на расстоянии 9/6 540 м
[Cu Sc Ac lent Cs]
+25.4 +16.4 57 +29 +31 душно 1016.3 831.9 0.0
ЮВ 5 4000 м осадки на расстоянии 10/8 300 м
[Frnb As op Cs]
+19.2 +17.9 92 +21 +21 комфорт 1018.6 833.8 3
С 1 3000 м в посл. час дождь {морось} 10/8 120 м
[Frnb As op Cs]
+18.1 +18.1 100 +19 +19 1021.3 836.0 +26.4 0.6
СЗ 2 3000 м слаб. морось {дождь} 10/8 120 м
[Frnb As op Cs]
+17.3 +17.1 99 +18 +18 1020.9 835.7 0.6
В 1 3000 м слаб. дождь {морось} 10/8 120 м
[Frnb As op Cs]
+16.5 +16.5 100 +17 +17 1019.8 834.8 0.0
СЗ 2 10 км в посл. час морось 9/6 400 м
[Cu Sc Ac trans Cs]
+20.2 +17.5 84 +24 +27 комфорт 1022.8 837.0 +16.2 0.0
СЗ 2 10 км осадки на расстоянии 8/5 600 м
[Cu med, cong Ac trans Cs]
+24.6 +18.0 67 +29 +36 душно 1018.7 833.9
С 1 9000 м в посл. час морось {дождь} 9/6 450 м
[Cu Sc Ac lent Cs]
+21.6 +16.2 71 +25 +28 комфорт 1017.5 832.9 0.0
В 1 7000 м осадки на расстоянии 9/6 360 м
[Cu Sc Ac lent Cs]
+18.8 +17.1 90 +21 +21 комфорт 1019.1 834.2
ЮВ 1 2000 м дымка 9/6 120 м
[Frnb Ac lent Cs]
+17.6 +16.8 95 +19 +19 1021.4 836.1 +25.0
штиль 0 2000 м дымка 10/8 60 м
[Frnb As op Cs]
+17.5 +17.2 98 +17 +17 1020.7 835.5
В 1 2000 м дымка 10/8 60 м
[Frnb As op Cs]
+17.3 +17.0 98 +19 +19 1019.3 834.4
СВ 2 9000 м 9/6 450 м
[Cu Sc Ac trans Ci fib]
+20.6 +16.7 78 +25 +28 комфорт 1022.4 836.9 +17.0 0.0
В 3 10 км слаб. дождь {морось} 9/6 600 м
[Cu Sc As op Cs]
+20.8 +18.2 85 +25 +30 комфорт 1019.6 834.6 0.1
З 2 10 км осадки на расстоянии 9/6 450 м
[Cu Sc Ac trans Cs]
+22.2 +16.9 72 +27 +29 душно 1017.9 833.2 0.2
В 1 5000 м в посл. час морось 10/6
[Cu Sc Ac trans Cs]
+18.1 +17.2 94 +19 +19 1019.6 834.6 0.2
С 1 3000 м дымка 10/6 90 м
[Frnb As op Cs]
+17.9 +17.7 99 +20 +20 1021.9 836.5 +23.6 0.5
штиль 0 3000 м дымка 10/8 90 м
[Frnb As op Cs]
+17.7 +17.5 99 +18 +18 1021.4 836.1
СВ 2 2000 м дымка 10/8 60 м
[Frnb As op Cs]
+16.9 +16.7 99 +17 +17 1019.7 834.7
С 2 9000 м 9/6 500 м
[Cu Sc Ac lent Cs]
+21.6 +16.8 74 +26 +29 душно 1022.4 836.9 +16.6 0.5
ЮВ 3 10 км 9/6 600 м
[Cu Sc Ac lent Cs]
+26.1 +15.7 53 +29 +34 жарко 1018.3 833.6
ЮВ 5 10 км в посл. час морось 9/6 540 м
[Cu Sc Ac lent Cs]
+22.2 +17.4 74 +27 +28 душно 1016.9 832.4 0.1
Ю 4 8000 м слаб. дождь 10/8 450 м
[Cu Sc As op Cs]
+18.0 +17.7 98 +18 +18 1019.6 834.6 6
ЮЗ 2 1000 м слаб. дождь 10/9 30 м
[Frnb As op]
+17.3 +17.1 99 +18 +18 1022.6 837.1 +26.3 3
С 1 1000 м дымка 10/8 30 м
[Frnb As op Cs]
+17.1 +17.1 100 +18 +18 1022.3 836.8 1
ЮВ 1 1000 м дымка 10/6 30 м
[Frnb Ac trans Cs]
+16.9 +16.9 100 +18 +18 1021.0 835.7 1
З 1 8000 м 10/6 270 м
[Frnb Ac lent Cs]
+19.3 +17.1 87 +22 +25 комфорт 1023.6 837.9 +16.3 10
ЮВ 2 10 км 9/6 600 м
[Cu med, cong Ac lent Cs]
+25.2 +16.4 58 +29 +34 душно 1019.7 834.7
ЮВ 10 7000 м слаб. дождь 10/8 480 м
[Frnb As op Cs]
+20.1 +15.6 75 +22 +22 комфорт 1018.3 833.6 0.0
Ю 2 4000 м в посл. час дождь 9/6 300 м
[Frnb As op Cs]
+17.0 +16.2 95 +18 +18 1020.7 835.5 2
СВ 1 3000 м местами туман поземный {дождь} 6/5 120 м
[Frnb As op Cs]
+15.9 +15.9 100 +16 +16 1022.5 837.0 +25.3 2
С 1 1000 м туман 10/9 60 м
[Frnb As op Cs]
+15.7 +15.7 100 +16 +16 1022.6 837.1
В 2 500 м туман 10/10 30 м
[Frnb]
+15.2 +15.2 100 +15 +15 1020.7 835.5
Местоположение метеостанции Вамена (Индонезия): широта -4.07 долгота 138.95 высота над уровнем моря 1660 м.
В архиве по умолчанию представлена погода в Вамене за последнюю неделю. Архивные данные за месяц целиком и за предыдущие месяцы, начиная с января 2011 года, Вы можете получить, выбрав интересующий диапазон дат из раскрывающегося списка и нажав кнопку "Найти!".
*Определитесь, кто Вы:
Внимание! Время в таблицах - всемирное. Для получения местного времени необходимо прибавить поправку, которая равна 9 ч.
Смотрите также архив погоды в соседних городах и на ближайших метеорологических станциях:
Партнеры нашего сайта:      
Пояснения к столбцам:
  • Ветер - указаны скорость ветра в м/с - средняя за 10 мин, порывы в срок и между сроками (в фигурных скобках) и направление, откуда дует ветер: С - северный,
  • СВ - северо-восточный, В - восточный, ЮВ - юго-восточный, Ю - южный, ЮЗ - юго-западный, З - западный, СЗ - северо-западный.
  • Видимость - горизонтальная дальность видимости в метрах или километрах. При видимости от 1 до 10 км при отсутствии осадков обычно наблюдается дымка, при ухудшении видимости до 1 км и менее - туман. В сухую погоду видимость может ухудшаться дымом, пылью или мглою.
  • Явления - указаны атмосферные явления, наблюдавшиеся в срок или в последний час перед сроком; фигурными скобками обозначены явления, наблюдавшиеся между сроками (за 1-3 часа до срока); квадратными скобками обозначены град или гололедные отложения с указанием их диаметра в мм.
  • Облачность - указаны через наклонную черту общая и нижняя облачность в баллах и высота нижней границы облаков в метрах; квадратными скобками обозначены формы облаков: Ci - перистые, Cs - перисто-слоистые, Cc - перисто-кучевые, Ac - высококучевые, As - высокослоистые, Sc - слоисто-кучевые, Ns - слоисто-дождевые, Cu - кучевые, Cb - кучево-дождевые. Подробнее классификацию облаков см. в Атласе облаков (PDF).
  • T - Температура воздуха - температура, измеренная на высоте 2 м над землей.
  • Td - Температура точки росы - температура, при понижении до которой содержащийся в воздухе водяной пар достигнет насыщения.
  • f - Относительная влажность воздуха - влажноcть воздуха, измеренная на высоте 2 м над землей.
  • Te - Эффективная температура - температура, которую ощущает одетый по сезону человек в тени. Характеристика душности погоды. При расчете учитывается влияние влажности воздуха и скорости ветра на теплоощущения человека.
  • Tes - Эффективная температура на солнце - температура, которую ощущает человек, с поправкой на солнечный нагрев. Характеристика знойности погоды. Зависит от высоты солнца над горизонтом, облачности и скорости ветра. Ночью, в пасмурную погоду, а также при ветре 12 м/с и более поправка равна нулю.
  • P - Атмосферное давление - приведенное к уровню моря атмосферное давление.
  • Po - Атмосферное давление - измеренное на уровне метеостанции атмосферное давление.
  • Tmin - Минимальная температура - минимум температуры воздуха на высоте 2 м над землей.
  • Tmax - Максимальная температура - максимум температуры воздуха на высоте 2 м над землей.
  • R - Количество осадков - Количество выпавших осадков за период времени, мм. При наведении курсора мыши на число - период времени, за который выпало указанное количество осадков.
  • R24 - Количество осадков - Количество выпавших осадков за 24 часа, мм.
  • S - Снежный покров - Высота снежного покрова, см. При наведении курсора мыши на число - состояние снежного покрова и степень покрытия местности в баллах.